Austin, MN

3:00 AM CDT on July 25, 2017 (GMT -0500)
Austin Municipal

Weather History for KAUM - August, 2014

Change the Weather History Date:

Thursday, August 21, 2014

  Actual Average Record
Temperature  
Mean Temperature 75 °F -  
Max Temperature 84 °F 75 °F 84 °F (2010)
Min Temperature 66 °F 58 °F 39 °F (2004)
Cooling Degree Days 10    
Growing Degree Days 25 (Base 50)    
Moisture  
Dew Point 70 °F    
Average Humidity 85    
Maximum Humidity 100    
Minimum Humidity 62    
Precipitation  
Precipitation 1.03 in - - ()
Sea Level Pressure  
Sea Level Pressure 29.84 in    
Wind  
Wind Speed 7 mph (South)    
Max Wind Speed 16 mph    
Max Gust Speed 22 mph    
Visibility 9 miles    
Events Rain , Thunderstorm    
Averages and records for this station are not official NWS values.
T = Trace of Precipitation, MM = Missing Value Source: NWS Daily Summary

Daily Weather History Graph

Daily Weather History Graph

Search for Another Location

Airport or City:

Trip Planner

Search our weather history database for the weather conditions in past years. The results will help you decide how hot, cold, wet, or windy it might be!

Date:

Astronomy

Aug. 21, 2014 Rise Set
Actual Time 6:23 AM CDT 8:05 PM CDT
Civil Twilight 5:52 AM CDT 8:36 PM CDT
Nautical Twilight 5:15 AM CDT 9:13 PM CDT
Astronomical Twilight 4:35 AM CDT 9:52 PM CDT
Moon 2:50 AM CDT (8/21) 5:37 PM CDT (8/21)
Length of Visible Light 14h 43m
Length of Day
13h 42m
Waning Crescent, 13% of the Moon is Illuminated
Aug 21
Waning Crescent
Aug 25
New
Sep 2
First Quarter
Sep 8
Full
Sep 15
Last Quarter

Hourly Weather History & Observations

Time (CDT) Temp. Heat Index Dew Point Humidity Pressure Visibility Wind Dir Wind Speed Gust Speed Precip Events Conditions
12:15 AM 68.0 °F - 66.2 °F 94% 29.90 in 10.0 mi SSE 3.5 mph - N/A   Clear
12:35 AM 66.2 °F - 66.2 °F 100% 29.90 in 10.0 mi Calm Calm - N/A   Clear
12:55 AM 68.0 °F - 66.2 °F 94% 29.90 in 10.0 mi Calm Calm - N/A   Clear
1:15 AM 68.0 °F - 66.2 °F 94% 29.89 in 10.0 mi SE 4.6 mph - N/A   Clear
1:35 AM 68.0 °F - 66.2 °F 94% 29.88 in 10.0 mi SE 4.6 mph - N/A   Clear
1:55 AM 69.8 °F - 66.2 °F 88% 29.88 in 10.0 mi SSE 4.6 mph - N/A   Clear
2:16 AM 69.8 °F - 66.2 °F 88% 29.87 in 10.0 mi SSE 5.8 mph - N/A   Clear
2:35 AM 69.8 °F - 66.2 °F 88% 29.86 in 10.0 mi SE 6.9 mph - N/A   Clear
2:49 AM 69.8 °F - 66.2 °F 88% 29.86 in 10.0 mi SE 6.9 mph - N/A   Clear
3:12 AM 69.8 °F - 66.2 °F 88% 29.84 in 10.0 mi SE 9.2 mph - N/A   Clear
3:36 AM 69.8 °F - 68.0 °F 94% 29.84 in 10.0 mi SSE 8.1 mph - N/A   Clear
3:43 AM 69.8 °F - 68.0 °F 94% 29.84 in 10.0 mi SE 6.9 mph - N/A   Clear
4:08 AM 69.8 °F - 68.0 °F 94% 29.81 in 10.0 mi SE 6.9 mph - N/A   Scattered Clouds
4:57 AM 71.6 °F - 69.8 °F 94% 29.81 in 7.0 mi SSE 4.6 mph - N/A   Overcast
5:11 AM 71.6 °F - 69.8 °F 94% 29.82 in 7.0 mi SSE 4.6 mph - N/A   Overcast
5:27 AM 71.6 °F - 69.8 °F 94% 29.82 in 7.0 mi SSE 5.8 mph - N/A   Overcast
5:42 AM 71.6 °F - 69.8 °F 94% 29.82 in 5.0 mi SE 4.6 mph - N/A Rain Light Rain
5:55 AM 71.6 °F - 69.8 °F 94% 29.82 in 5.0 mi SSE 6.9 mph - N/A Rain , Thunderstorm Light Thunderstorms and Rain
6:12 AM 71.6 °F - 69.8 °F 94% 29.83 in 4.0 mi SE 6.9 mph - 0.01 in Rain , Thunderstorm Thunderstorms and Rain
6:32 AM 71.6 °F - 69.8 °F 94% 29.83 in 4.0 mi SSE 4.6 mph - 0.03 in Rain , Thunderstorm Thunderstorms and Rain
6:55 AM 71.6 °F - 69.8 °F 94% 29.86 in 1.8 mi NNE 11.5 mph - 0.38 in Rain , Thunderstorm Heavy Thunderstorms and Rain
7:15 AM 71.6 °F - 69.8 °F 94% 29.84 in 10.0 mi SSW 4.6 mph - 0.07 in Rain , Thunderstorm Rain
7:16 AM 71.6 °F - 69.8 °F 94% 29.84 in 10.0 mi SSW 4.6 mph - 0.07 in Rain , Thunderstorm Rain
7:56 AM 71.6 °F - 69.8 °F 94% 29.87 in 3.0 mi ESE 4.6 mph - N/A Rain , Thunderstorm Heavy Thunderstorms and Rain
8:07 AM 71.6 °F - 69.8 °F 94% 29.87 in 5.0 mi SSE 4.6 mph - 0.02 in Rain , Thunderstorm Thunderstorms and Rain
8:21 AM 71.6 °F - 69.8 °F 94% 29.87 in 4.0 mi SE 6.9 mph - 0.08 in Rain , Thunderstorm Heavy Thunderstorms and Rain
8:55 AM 69.8 °F - 69.8 °F 100% 29.81 in 4.0 mi SE 12.7 mph 18.4 mph 0.52 in Rain , Thunderstorm Heavy Thunderstorms and Rain
9:02 AM 69.8 °F - 69.8 °F 100% 29.79 in 10.0 mi SE 13.8 mph 18.4 mph 0.01 in Rain , Thunderstorm Light Thunderstorms and Rain
9:35 AM 69.8 °F - 69.8 °F 100% 29.79 in 10.0 mi South 8.1 mph - 0.04 in Rain Light Rain
9:55 AM 69.8 °F - 69.8 °F 100% 29.81 in 10.0 mi South 16.1 mph 20.7 mph 0.05 in Rain , Thunderstorm Light Thunderstorms and Rain
10:00 AM 69.8 °F - 69.8 °F 100% 29.80 in 7.0 mi SSE 10.4 mph 21.9 mph 0.01 in Rain , Thunderstorm Heavy Thunderstorms and Rain
10:35 AM 71.6 °F - 69.8 °F 94% 29.84 in 10.0 mi South 12.7 mph - N/A   Clear
10:57 AM 71.6 °F - 69.8 °F 94% 29.80 in 10.0 mi South 11.5 mph 19.6 mph N/A   Clear
11:12 AM 73.4 °F - 69.8 °F 88% 29.85 in 10.0 mi South 13.8 mph 20.7 mph N/A   Mostly Cloudy
11:34 AM 71.6 °F - 69.8 °F 94% 29.78 in 10.0 mi SSE 12.7 mph 20.7 mph N/A   Mostly Cloudy
11:49 AM 71.6 °F - 69.8 °F 94% 29.82 in 10.0 mi South 11.5 mph 16.1 mph N/A   Scattered Clouds
12:01 PM 73.4 °F - 71.6 °F 94% 29.82 in 10.0 mi South 10.4 mph - N/A   Clear
12:21 PM 73.4 °F - 71.6 °F 94% 29.81 in 10.0 mi South 10.4 mph 16.1 mph N/A   Scattered Clouds
12:41 PM 75.2 °F - 71.6 °F 89% 29.80 in 10.0 mi SSW 10.4 mph - N/A   Scattered Clouds
1:01 PM 78.8 °F - 71.6 °F 78% 29.80 in 10.0 mi South 9.2 mph - N/A   Clear
1:21 PM 80.6 °F 84.6 °F 71.6 °F 74% 29.79 in 10.0 mi South 12.7 mph 16.1 mph N/A   Clear
1:41 PM 80.6 °F 84.6 °F 71.6 °F 74% 29.80 in 10.0 mi South 9.2 mph - N/A   Clear
2:01 PM 82.4 °F 87.2 °F 71.6 °F 70% 29.81 in 10.0 mi South 10.4 mph - N/A   Clear
2:21 PM 82.4 °F 87.2 °F 71.6 °F 70% 29.81 in 10.0 mi SSW 13.8 mph 18.4 mph N/A   Clear
2:41 PM 84.2 °F 89.6 °F 71.6 °F 66% 29.81 in 10.0 mi SSW 12.7 mph 18.4 mph N/A   Clear
3:01 PM 84.2 °F 89.6 °F 71.6 °F 66% 29.82 in 10.0 mi SSW 10.4 mph 16.1 mph N/A   Clear
3:21 PM 84.2 °F 88.4 °F 69.8 °F 62% 29.82 in 10.0 mi SSW 11.5 mph - N/A   Clear
3:22 PM 84.2 °F 88.4 °F 69.8 °F 62% 29.82 in 10.0 mi SSW 12.7 mph - N/A   Clear
3:39 PM 84.2 °F 89.6 °F 71.6 °F 66% 29.82 in 10.0 mi South 11.5 mph 17.3 mph N/A   Clear
3:47 PM 84.2 °F 90.9 °F 73.4 °F 70% 29.82 in 10.0 mi SSW 9.2 mph 17.3 mph N/A   Scattered Clouds
4:01 PM 84.2 °F 90.9 °F 73.4 °F 70% 29.83 in 10.0 mi South 11.5 mph - N/A   Scattered Clouds
4:21 PM 82.4 °F 88.2 °F 73.4 °F 74% 29.83 in 10.0 mi South 9.2 mph - N/A   Scattered Clouds
4:41 PM 84.2 °F 89.6 °F 71.6 °F 66% 29.83 in 10.0 mi SSW 9.2 mph - N/A   Scattered Clouds
5:01 PM 82.4 °F 88.2 °F 73.4 °F 74% 29.84 in 10.0 mi South 8.1 mph - N/A   Mostly Cloudy
5:21 PM 84.2 °F 89.6 °F 71.6 °F 66% 29.84 in 10.0 mi South 10.4 mph - N/A   Mostly Cloudy
5:41 PM 84.2 °F 89.6 °F 71.6 °F 66% 29.84 in 10.0 mi SSW 9.2 mph - N/A   Scattered Clouds
6:01 PM 84.2 °F 89.6 °F 71.6 °F 66% 29.85 in 10.0 mi SSW 8.1 mph - N/A   Mostly Cloudy
6:21 PM 82.4 °F 88.2 °F 73.4 °F 74% 29.85 in 10.0 mi South 9.2 mph - N/A   Mostly Cloudy
6:41 PM 82.4 °F 87.2 °F 71.6 °F 70% 29.84 in 10.0 mi SSW 6.9 mph - N/A   Scattered Clouds
7:14 PM 80.6 °F 84.6 °F 71.6 °F 74% 29.85 in 10.0 mi South 6.9 mph - N/A   Scattered Clouds
7:34 PM 80.6 °F 84.6 °F 71.6 °F 74% 29.85 in 10.0 mi SSW 5.8 mph - N/A   Clear
7:41 PM 80.6 °F 84.6 °F 71.6 °F 74% 29.85 in 10.0 mi SSW 5.8 mph - N/A   Scattered Clouds
8:01 PM 78.8 °F - 71.6 °F 78% 29.85 in 10.0 mi South 5.8 mph - N/A   Mostly Cloudy
8:21 PM 78.8 °F - 71.6 °F 78% 29.86 in 10.0 mi South 4.6 mph - N/A   Mostly Cloudy
8:41 PM 77.0 °F - 71.6 °F 83% 29.86 in 10.0 mi South 5.8 mph - N/A   Scattered Clouds
9:01 PM 77.0 °F - 71.6 °F 83% 29.86 in 10.0 mi South 5.8 mph - N/A   Scattered Clouds
9:21 PM 77.0 °F - 71.6 °F 83% 29.87 in 10.0 mi South 4.6 mph - N/A   Mostly Cloudy
9:41 PM 75.2 °F - 71.6 °F 89% 29.86 in 10.0 mi South 4.6 mph - N/A   Mostly Cloudy
10:01 PM 75.2 °F - 71.6 °F 89% 29.87 in 10.0 mi South 3.5 mph - N/A   Scattered Clouds
10:21 PM 75.2 °F - 73.4 °F 94% 29.87 in 10.0 mi SSE 2.3 mph - N/A   Scattered Clouds
11:01 PM 75.2 °F - 73.4 °F 94% 29.87 in 10.0 mi South 5.8 mph - N/A   Mostly Cloudy
11:21 PM 73.4 °F - 71.6 °F 94% 29.88 in 7.0 mi South 3.5 mph - N/A   Clear
11:41 PM 73.4 °F - 71.6 °F 94% 29.88 in 7.0 mi South 3.5 mph - N/A   Scattered Clouds